CAPE
1760 2295 2926 3337 2116 117 73 74 206 325 111 169 506 585 425 172 267 0 19 9 15 171 458 526 1139 570 1068 1100 1103 1340 1497 1338 1476 1381 1340 1339 1225 993 1038 701 470 558 427 375 209 176 276 384 382
3175 2886 3316 3079 467 172 153 135 166 233 225 368 535 724 693 0 0 0 5 9 40 18 24 120 773 544 1111 799 1267 1351 1500 1794 1619 1322 1506 1491 1298 1210 707 762 854 666 654 626 501 451 432 515 550
3051 2898 2448 218 286 243 215 216 195 233 253 264 378 591 813 0 0 8 7 33 40 60 129 241 618 732 1051 1431 1252 1439 1579 1656 1712 1727 1687 1314 1459 1019 1014 857 917 894 710 842 842 774 759 755 653
2243 2598 1428 332 258 245 273 284 147 132 58 0 20 495 475 0 5 0 14 48 150 137 5 136 829 1200 1271 1077 1207 1461 1656 1548 1668 1727 1922 1807 1411 1497 1447 1125 1071 943 724 839 994 940 807 651 513
1302 1118 186 228 248 306 363 385 153 38 10 0 3 341 150 123 0 4 27 165 97 259 313 833 1257 1158 1168 915 1260 1327 1676 1625 1697 1541 1930 1849 1593 1521 1380 1464 1102 861 1170 1099 1081 914 944 834 528
676 140 109 207 372 329 435 419 301 10 0 0 0 117 183 28 0 1 67 38 195 87 251 533 1519 1408 1214 1275 1396 1367 1450 1705 1593 1738 1593 1772 1766 1647 1396 1442 1428 1238 1250 1154 1131 971 516 414 438
367 94 207 230 126 315 423 407 316 77 0 0 0 68 35 24 0 0 27 22 43 53 153 170 111 151 1558 1557 1519 1357 1379 1369 1742 1574 1421 1612 1564 1697 1443 1320 1410 1321 1235 1259 1135 873 712 643 587
381 118 188 95 74 323 410 402 397 100 27 4 0 10 61 32 0 0 6 9 49 189 144 104 41 167 277 411 935 1378 1316 1334 1510 1601 1729 1522 1270 1305 1542 1052 987 866 1237 1106 956 805 687 496 391
35 244 136 180 304 426 408 301 397 148 136 231 8 0 64 1 4 0 0 81 162 120 129 82 179 483 823 841 0 163 1048 1282 1179 782 779 1256 1086 1327 1038 1103 1306 1558 1285 1333 1104 857 698 393 199
189 145 109 259 260 337 345 310 393 306 472 68 0 0 2 0 12 4 0 42 40 76 104 106 169 259 21 56 782 840 141 247 1029 968 695 1342 648 891 952 849 941 1011 913 1126 1006 699 359 188 392
215 269 154 187 392 397 371 300 302 151 162 16 0 0 0 8 37 0 0 0 6 6 38 208 488 483 600 684 616 715 736 652 239 655 876 575 538 157 243 700 293 724 532 674 671 643 547 383 109
107 244 200 359 427 488 500 362 285 166 91 16 1 0 10 54 60 4 2 0 1 5 11 198 436 573 655 679 504 729 675 665 481 236 572 1144 634 343 571 443 505 424 911 505 665 518 156 185 110
317 360 336 404 472 480 481 420 235 221 95 1 0 1 28 33 24 36 9 0 0 2 2 55 321 797 959 1224 1004 689 1057 540 711 845 269 911 1002 707 535 635 602 841 768 253 118 117 183 248 125
384 371 379 509 492 503 498 405 370 300 141 27 41 47 64 78 113 82 27 8 0 3 2 58 308 792 988 1082 1258 939 352 845 649 634 715 812 970 865 949 1180 1005 1120 932 542 722 669 438 369 592
258 370 476 484 578 578 413 379 434 348 274 137 223 168 95 102 154 164 196 190 74 0 0 80 264 520 878 1030 1000 599 563 408 521 751 1118 203 932 1317 698 1078 1221 1080 1312 1335 1497 1379 1369 1217 771
162 28 16 284 604 837 480 536 539 420 463 386 354 343 227 181 61 247 341 505 470 274 142 72 113 302 698 693 1060 531 701 554 848 833 903 885 1021 1094 1136 920 1021 953 1120 1108 946 887 957 1220 746
197 30 185 333 468 545 644 519 710 462 525 607 509 527 548 525 400 237 336 535 818 779 484 407 418 165 520 1014 975 607 955 381 675 524 986 1114 1085 1069 1049 665 717 1087 739 839 866 593 310 349 775
66 289 160 151 173 281 372 447 530 705 551 722 735 614 656 593 617 478 492 509 675 744 892 916 816 958 841 1144 1368 820 986 287 197 1112 1440 1242 1282 1140 1309 661 875 1120 871 1139 1092 719 1302 968 1029
97 98 100 147 135 172 311 116 142 719 621 616 807 839 794 794 664 614 597 683 777 853 890 880 1287 1007 1184 1322 1098 856 442 918 861 917 1317 808 1400 1655 1655 1251 1429 1531 1248 1004 1259 1231 1038 908 1249
13 136 155 172 163 109 140 102 89 268 517 606 711 867 920 829 847 764 689 707 779 913 823 991 1026 908 1236 1250 1200 1321 715 488 610 1235 1528 2118 1830 1966 1888 1867 1738 1614 1543 1692 1883 1518 1257 1012 1239
89 146 68 69 74 88 156 0 5 307 387 597 667 746 827 918 891 941 869 772 822 839 782 1043 1330 1054 1260 1490 1427 1567 1278 1508 1118 1175 1607 1973 1858 1976 2087 1612 1805 2147 1861 1305 1517 1256 487 1130 957
65 104 20 68 92 18 131 93 5 370 575 577 654 692 776 848 1046 1002 947 943 876 913 920 870 1570 1583 1591 1712 1329 1597 1057 1017 1399 1406 1303 1227 1863 1417 1036 1220 1833 2229 1712 2018 1840 1788 1289 883 796
78 63 16 9 73 95 24 237 19 161 234 405 542 628 650 768 910 1093 1077 945 834 861 772 989 1747 1550 1761 1787 2058 1666 1556 1314 1388 1628 1494 1408 1818 1884 1815 1822 1586 1763 2078 1771 1834 1666 1522 1016 933
65 13 10 13 32 82 65 56 0 9 100 351 444 498 611 684 795 938 1179 984 902 746 791 1129 1598 1893 1738 1756 1807 1603 1198 1596 1602 1485 1604 1608 1444 1651 1350 1381 1361 1385 1485 1560 1394 1349 945 558 833
47 7 18 59 0 0 35 169 35 110 148 171 460 565 572 780 848 878 1241 974 943 854 653 835 1526 1710 1677 1708 1456 1605 1796 2025 1955 1923 1946 1847 1556 1204 1085 883 861 667 663 570 439 620 765 958 961
169 150 94 72 52 14 0 4 45 37 294 263 735 681 734 773 810 861 1102 949 941 799 592 576 1114 1541 1549 1507 2179 2357 2512 2164 2164 2264 2056 1628 1226 811 573 371 137 13 4 2 0 0 0 0 13
0 2 3 7 94 26 11 52 127 80 165 298 401 996 1013 838 780 948 1034 976 980 724 765 1106 1851 2001 2008 2302 2657 2538 2327 2400 2526 2056 1582 614 654 77 35 0 0 0 0 0 0 0 0 0 0
0 0 86 67 8 20 43 37 5 0 312 366 416 759 1094 1092 1007 1087 967 927 862 758 903 1452 2216 2141 2075 2261 2407 2370 2358 2321 1929 1378 622 136 0 0 0 0 0 0 0 0 0 0 7 4 0
0 0 0 17 31 63 29 13 0 0 1 376 446 614 1107 1218 1175 1201 995 853 825 898 1019 1665 2140 2219 1957 2028 2198 1982 1678 1516 726 125 10 0 0 0 0 0 1 2 2 4 1 0 0 0 0
0 1 0 14 49 6 92 3 16 15 10 75 276 735 1076 1277 1253 1334 1069 930 901 1115 1290 2021 2160 1916 1849 2453 2421 1781 1088 229 3 0 0 0 0 0 0 0 0 1 1 3 2 0 1 0 1
CIN
-382 -265 -117 -26 -15 -25 -51 -50 -15 -4 -50 -28 -3 -2 -15 -13 -8 0 -3 -2 -3 -15 -22 -13 0 -12 -2 -1 -1 0 0 0 0 0 0 0 0 0 0 -2 -5 -1 0 -1 -5 -7 -3 0 -2
-74 -96 -49 -25 -8 -14 -26 -35 -26 -11 -8 -4 -3 -2 -3 0 0 0 -2 -3 -4 -2 -9 -28 -16 -16 -2 -1 0 0 0 0 0 0 0 0 -1 0 -6 -3 0 0 -2 -4 0 0 -1 -2 -8
-188 -105 -18 -10 -4 -6 -7 -7 -4 -3 -3 -2 -3 -3 -3 0 0 -3 -23 -3 -3 -5 -6 -47 -24 -6 -2 0 -1 0 0 0 0 0 0 0 0 -4 -1 -4 -1 -1 0 -4 0 0 0 0 -4
-62 -17 -15 -5 -6 -5 -4 -4 -5 -7 -26 0 -29 -11 -6 0 -2 0 -43 -3 -28 -35 -4 -80 -13 0 0 0 0 0 0 0 0 0 0 0 0 0 0 -3 0 -1 0 0 -1 0 0 -7 0
-53 -11 -10 -5 -3 -2 -3 -2 -11 -49 -72 0 -2 -19 -44 -33 0 -17 -14 -3 -5 -5 -14 -4 -2 -1 -1 -4 0 0 0 0 0 0 0 0 0 0 0 0 -1 -6 0 0 0 -3 0 -4 -17
-28 -18 -45 -5 -2 -5 -3 -3 -5 -41 0 0 -4 -46 -40 -57 0 -2 -7 -5 -2 -43 -4 -7 -1 0 -1 0 0 0 0 0 0 0 0 0 0 0 0 0 0 0 0 0 0 0 -13 -17 -16
-6 -54 -5 -2 -4 -2 -2 -2 -3 -7 0 0 0 -59 -74 -67 0 -1 -6 -4 -5 -8 -5 -5 -17 -61 0 0 0 0 0 0 0 0 0 0 -1 0 0 0 0 0 0 0 0 -1 -1 -8 -43
-6 -62 -11 -31 -27 -1 -4 -11 -3 -16 -43 -10 -1 -21 -61 -75 0 -1 -4 -3 -4 -8 -5 -16 -5 -2 -1 -5 -4 0 0 0 0 -1 -1 -9 -15 -10 -8 -15 -3 -7 0 -1 -17 -24 -36 -27 -35
-232 -10 -21 -5 -5 -3 -3 -3 -18 -4 -5 -6 -27 0 -51 -11 -33 0 0 -7 -4 -10 -5 -3 -3 -1 -10 -5 0 -57 -11 -9 -14 -23 -30 -31 -2 -11 -3 -3 -6 0 0 0 0 -5 -49 -33 -54
-47 -8 -13 -6 -7 -5 -2 -3 -3 -2 -4 -30 0 0 -18 0 -93 -17 0 -20 -16 -17 -13 -4 -2 -2 -36 -57 -5 -5 -19 -3 -5 -4 -6 -12 -2 -15 -8 -12 -17 -14 -18 -12 -21 -32 -58 -56 -15
-7 -3 -3 -5 -2 -3 -4 -4 -3 -4 -9 -55 0 0 0 -76 -32 0 0 0 -2 -5 -24 -3 -3 -3 -15 -9 -2 -2 -2 -1 -3 -1 -3 -1 -1 -11 -11 -15 -31 -16 -45 -10 -34 -51 -31 -9 -2
-58 -3 -2 -3 -4 -3 -5 -5 -3 -26 -27 -67 -89 0 -103 -39 -7 -3 -2 -1 -2 -3 -23 -2 -2 -1 -1 -5 -6 -10 -1 -2 -1 -2 -7 -1 -2 -2 -1 -2 -2 -4 -14 -9 -16 -2 -3 -1 -2
-9 -3 -4 -12 -4 -3 -11 -6 -20 -33 -53 -19 0 -29 -41 -3 -5 -3 -4 0 0 -2 -1 -5 -5 -11 -1 -6 -3 -18 -1 -6 -2 -6 -4 -2 -5 -2 -1 -2 -1 -2 -17 -8 -2 -2 -2 -4 -5
-5 -4 -8 -9 -11 -12 -3 -20 -4 -42 -72 -81 -70 -24 -6 -1 -3 -4 -3 -18 0 -3 -2 -5 -11 -16 -2 -1 -1 -1 -58 -2 -8 -11 -9 -5 -1 -4 -7 -3 -11 -4 -3 -4 -2 -1 -2 -5 -3
-2 -9 -19 -10 -17 -7 -18 -13 -9 -43 -55 -61 -43 -14 -5 -3 -2 -3 -4 -3 -7 0 0 -4 -5 -6 -8 -4 -2 -2 -62 -23 -13 -8 -2 -53 -14 -3 -15 -6 -1 -6 -3 -5 -3 -4 -3 -2 -1
-6 -134 -24 -25 -18 -30 -38 -1 -15 -38 -39 -42 -24 -11 -14 -10 -62 -7 -2 -5 -5 -2 -12 -15 -4 -3 -3 -2 -2 -2 -43 -24 -12 -4 -2 -2 -1 -1 -6 -3 -3 -1 -1 -10 -1 -1 -8 -8 -5
-21 -12 -17 -4 -11 -15 -23 -3 -21 -36 -35 -11 -26 -21 -2 -16 -33 -48 -6 -3 -3 -4 -31 -28 -5 -19 -2 -2 -2 -1 -12 -9 -13 -1 -2 -8 0 -1 -9 -2 -3 -6 -1 -19 -2 -24 -51 -35 -16
-166 -6 -6 -5 -13 -7 -3 -3 -5 -38 -36 -4 -2 -17 -9 -6 -12 -16 -4 -3 -3 -2 -1 -6 -2 -4 -8 -2 -4 -2 -22 -43 -53 -7 -3 -7 -2 -2 -1 -2 -4 -2 -5 -1 -2 -25 -4 -26 -2
-12 -2 -14 -6 -34 -33 -4 -2 -2 -13 -38 -35 -8 -5 -19 -4 -10 -3 -2 -4 -3 -7 -3 -2 -12 -32 -2 -2 -2 -1 -4 -2 -2 -2 -20 -39 -5 0 -2 -2 -2 -3 -5 -5 -4 -1 -10 -3 -1
-38 -50 -7 -37 -25 -31 -4 -5 -6 -6 -19 -38 -41 -12 -18 -31 -5 -4 -5 -1 -4 -12 -1 -4 -7 -53 -24 -2 -4 -8 -3 -2 -2 -14 -24 -7 0 -1 0 -5 -7 -5 -2 -1 -2 -3 -9 -6 -7
-9 -3 -26 -75 -6 -106 -42 0 -73 -21 -39 -38 -39 -36 -21 -14 -23 -9 -8 -5 -18 -3 -4 -2 -4 -6 -13 -5 -1 -2 -1 -4 -2 -1 -4 -2 -3 -1 0 -4 -5 -1 -3 -4 -3 -8 -45 -9 -9
-104 -13 -59 -57 -30 -108 -25 -18 -101 -5 -33 -52 -32 -32 -25 -11 -10 -13 -4 -4 -4 -3 -4 -2 -5 -1 -2 -2 -1 -12 -3 -10 -11 -2 -27 -4 -2 -7 -8 -3 -2 0 -6 -1 -1 -1 -8 -20 -9
-8 -46 -50 -53 -33 -8 -54 -9 -92 -11 -19 -15 -39 -22 -26 -7 -6 -3 -1 -2 -4 -3 -3 -6 -12 -6 -1 -2 -9 -2 -3 -13 -2 -2 -8 -7 -1 -1 -1 -5 -13 -1 -1 -1 -1 0 -1 -1 -5
-50 -64 -45 -31 -78 -18 -83 -7 -1 -9 -37 -26 -25 -38 -23 -6 -15 -6 -5 -3 -7 -21 -8 -5 -5 -2 -2 -2 -15 -16 -12 -2 -3 -3 -3 -7 -6 0 -13 -5 -6 -4 -2 -2 -1 -8 -21 -42 -18
-56 -54 -16 -33 -3 0 -39 -14 -48 -6 -64 -34 -31 -37 -38 -30 -34 -43 -21 -24 -25 -45 -41 -18 -14 -12 -12 -20 -29 -25 -10 -1 -2 -1 -3 -1 -1 -2 -6 -3 -7 -8 -19 -38 -67 -40 -22 -5 -18
-5 -4 -12 -25 -15 -44 0 -19 -45 -52 -17 -38 -27 -44 -50 -44 -36 -49 -43 -57 -59 -72 -65 -61 -42 -27 -44 -49 -6 -1 -1 -1 -1 -1 -2 -2 -2 -2 -29 -36 -71 -11 -16 -19 0 0 0 0 -49
0 -97 -36 -6 -9 -15 -24 -57 -6 -16 -10 -20 -38 -33 -57 -56 -72 -69 -61 -68 -76 -83 -69 -50 -30 -14 -5 -1 -2 -1 -1 -1 -2 0 0 -27 -12 -83 -123 0 0 0 0 0 0 0 0 0 0
0 -1 -16 -12 -9 -27 -22 -3 -22 0 -6 -19 -22 -36 -52 -66 -92 -81 -79 -70 -83 -89 -79 -24 -4 -2 -1 -2 -2 -1 -2 -1 -1 -9 -67 -150 0 0 0 0 0 0 0 0 0 0 -382 -256 0
0 0 0 -9 -34 -11 -6 -24 -14 0 -4 -7 -10 -32 -34 -68 -88 -86 -86 -88 -101 -79 -82 -30 -9 -2 -1 -3 -2 -2 -12 -21 -87 -215 -87 0 0 0 0 0 0 -1 -1 0 -1 0 0 0 0
0 -2 0 -6 -8 -18 -7 -2 -14 -12 -7 -8 -4 -12 -26 -59 -83 -85 -86 -98 -88 -74 -61 -19 -10 -10 -2 -3 -2 -12 -65 -187 -15 0 0 0 0 0 0 0 0 0 -1 -1 -1 0 0 0 -1
Wind_Speed
18 19 15 12 18 29 31 28 26 24 24 23 21 19 18 14 13 14 24 22 24 22 23 24 21 16 15 6 4 7 4 12 12 11 9 11 13 18 25 30 33 32 33 23 22 22 30 23 17
14 14 12 12 19 27 29 27 27 25 23 21 18 18 18 17 19 22 23 27 25 25 24 24 23 24 18 15 4 8 9 13 8 9 9 11 15 18 25 30 33 33 34 36 32 27 18 9 6
14 12 12 19 26 29 27 28 26 24 21 19 19 14 13 17 14 19 23 27 27 26 22 23 25 25 16 21 9 13 10 12 12 5 12 13 13 15 20 27 31 32 34 35 28 7 21 25 20
13 14 15 29 29 29 28 27 25 22 22 20 18 19 17 15 13 21 23 28 25 24 20 25 26 25 24 23 9 10 15 10 11 11 9 11 13 12 15 15 7 32 32 31 26 30 30 24 14
13 13 28 29 29 28 27 26 26 24 21 19 18 20 16 10 17 21 25 20 24 22 24 26 25 25 24 24 19 10 11 11 12 12 9 13 13 14 12 7 20 30 30 27 30 29 20 17 18
12 20 26 28 27 27 27 25 26 25 24 23 22 19 15 14 16 20 23 20 21 20 21 26 25 25 24 24 23 22 11 9 11 13 9 8 10 9 8 6 11 28 27 27 24 3 19 26 26
13 25 26 25 27 26 26 27 28 26 24 22 21 18 16 16 15 17 18 18 22 19 22 24 24 24 23 22 23 19 19 12 7 8 11 7 6 5 5 9 13 25 24 25 23 21 19 22 23
10 22 27 26 26 27 24 26 26 26 26 22 19 16 19 18 17 17 16 18 24 13 21 21 23 23 22 22 22 17 17 19 15 19 21 24 23 14 20 22 23 22 22 22 20 19 19 20 20
7 15 26 27 26 24 23 25 26 25 24 22 19 21 19 21 18 18 16 15 17 23 22 22 19 21 18 10 22 22 20 20 22 22 21 22 21 22 22 14 18 20 21 21 20 20 19 19 19
15 24 25 24 27 25 24 25 22 25 25 24 24 22 23 22 18 17 17 15 20 21 19 18 20 19 22 11 17 16 20 20 20 22 20 19 21 13 8 17 19 20 20 20 19 19 18 18 18
18 23 26 25 26 25 24 24 22 25 27 25 25 23 23 22 19 15 17 16 16 14 13 17 10 16 16 17 19 17 15 17 19 18 19 16 19 20 20 20 20 20 19 19 18 18 18 18 16
19 23 25 24 24 23 25 21 26 28 26 26 26 25 22 21 20 17 16 9 7 6 9 13 20 19 7 11 16 12 14 15 18 20 19 18 19 20 18 17 17 18 18 17 18 18 18 18 18
17 21 24 23 23 23 21 21 22 25 25 25 25 24 20 19 19 14 11 8 7 7 7 10 13 17 6 14 12 14 16 17 19 18 19 18 18 18 18 17 18 18 17 14 19 19 18 17 17
18 21 22 21 22 20 19 21 18 21 23 24 24 23 24 25 24 14 14 14 10 7 6 8 11 14 15 16 14 16 12 14 14 15 16 18 18 18 17 18 18 18 18 18 17 17 18 17 20
17 16 19 21 20 17 12 23 18 20 21 22 22 22 22 23 23 21 18 13 13 7 6 7 8 10 13 12 17 17 12 15 13 11 19 18 18 17 18 18 14 14 17 18 19 20 20 20 19
9 25 13 21 18 17 9 24 18 19 19 20 20 20 20 20 20 21 16 12 6 6 8 8 8 8 11 12 13 16 14 13 12 7 13 13 11 13 14 17 8 14 12 13 18 18 14 9 18
14 12 18 20 17 16 14 6 19 16 17 17 18 18 18 18 17 17 17 13 9 5 5 10 14 13 8 11 13 14 13 13 12 12 12 13 13 13 16 11 13 13 12 12 16 14 16 18 20
11 18 19 19 19 15 11 8 12 14 15 15 15 16 15 16 16 17 16 16 10 4 3 6 10 9 15 10 13 15 12 12 16 18 12 13 15 15 12 13 14 10 13 18 16 13 13 9 18
14 14 16 17 18 12 12 12 18 14 14 15 14 14 14 14 15 15 16 15 14 8 3 8 11 9 12 8 9 7 16 14 12 14 15 14 12 12 11 19 12 9 11 19 20 21 10 17 19
12 21 14 17 15 15 18 14 18 15 13 14 15 15 14 13 15 15 16 16 14 15 14 5 11 2 9 12 12 17 17 13 14 12 14 13 15 16 17 20 21 18 21 16 13 9 21 20 20
20 12 20 19 20 22 21 12 17 18 17 14 13 13 13 13 13 14 16 16 15 13 13 6 8 1 14 25 15 13 19 16 9 8 9 13 16 19 21 20 17 20 24 13 15 16 16 20 22
16 15 21 21 21 14 11 14 16 16 18 16 13 12 11 12 12 13 15 16 15 15 14 10 5 3 10 21 16 8 22 17 15 15 18 18 18 18 18 18 18 18 19 18 15 15 13 14 17
18 22 25 20 18 18 17 20 18 13 22 17 14 12 10 10 12 13 15 15 16 15 15 14 13 12 3 14 22 9 18 15 14 15 16 17 16 19 19 19 19 20 18 15 16 15 16 17 17
22 15 19 20 25 22 9 17 18 5 21 18 16 14 13 13 14 14 14 15 15 15 15 16 18 17 13 6 6 21 14 12 15 15 15 16 15 16 19 18 18 18 18 18 19 19 19 20 19
9 14 19 20 13 9 16 21 13 17 19 18 16 15 15 15 16 15 15 16 16 16 16 18 18 17 15 14 17 12 8 9 13 14 16 18 18 16 17 16 15 15 15 17 21 21 18 14 14
17 20 23 23 23 10 14 10 14 17 16 16 16 15 15 15 16 17 18 18 18 17 17 16 14 15 15 12 12 8 9 12 16 17 15 17 17 18 17 16 17 9 10 9 12 18 22 23 12
19 21 23 25 28 29 13 12 15 16 15 14 14 14 14 15 16 17 20 20 19 21 19 19 19 19 19 16 11 10 12 13 13 16 16 16 17 16 17 17 17 18 20 17 16 18 24 25 20
25 28 19 5 10 20 18 19 16 18 14 12 11 10 12 13 15 16 18 19 20 20 18 18 21 21 21 18 14 11 11 13 14 16 18 19 18 18 18 18 18 18 19 21 22 23 21 23 23
7 12 22 28 29 23 23 16 16 16 15 11 9 8 9 11 12 13 15 17 19 19 18 17 17 17 17 15 11 10 11 13 14 16 17 18 18 18 18 18 18 18 19 20 21 22 22 23 23
20 2 11 13 6 3 27 15 20 18 21 17 9 5 7 8 10 12 15 16 16 18 18 17 16 14 15 11 10 10 11 12 14 16 17 18 18 18 18 18 18 18 19 21 22 23 22 21 22
Wind_Direction
130 136 148 143 100 60 33 29 30 54 48 42 36 22 18 338 340 34 85 74 84 75 80 85 65 38 28 348 338 10 3 27 27 25 22 21 23 43 61 75 90 88 104 144 150 150 131 138 62
159 161 151 125 88 46 38 31 31 36 44 57 13 28 22 15 45 71 77 95 88 87 85 87 79 77 42 33 323 6 14 28 16 18 19 24 31 44 62 75 87 87 83 101 125 137 152 154 66
141 156 129 91 49 40 41 34 40 53 51 22 49 346 338 57 35 63 81 95 98 95 74 79 96 97 38 64 2 26 17 24 22 351 24 29 34 42 52 71 81 85 97 104 129 72 145 83 58
142 125 114 39 47 44 41 39 45 62 48 38 59 32 51 53 46 78 84 104 83 82 62 88 101 101 109 92 360 10 35 12 18 18 15 26 34 38 45 50 125 100 109 86 71 86 87 65 41
136 125 62 54 50 49 46 41 36 38 22 45 42 64 55 23 69 81 95 76 84 71 86 95 102 101 106 107 59 6 14 16 22 25 10 30 36 39 41 35 59 93 98 78 90 123 155 156 154
127 92 57 51 55 52 47 53 48 45 46 49 63 63 53 66 76 85 94 75 82 71 72 99 101 100 94 101 100 131 15 1 21 27 12 7 23 22 21 20 34 95 94 96 84 243 140 127 100
129 66 49 62 54 53 51 52 52 61 51 64 71 59 72 83 77 81 77 71 83 74 81 97 102 104 104 77 104 163 163 184 308 351 22 354 347 319 324 216 189 101 96 113 123 150 161 141 119
166 43 48 54 47 51 58 57 61 63 62 72 91 69 101 94 91 83 74 76 103 40 90 79 109 104 123 101 124 172 179 171 196 171 154 126 110 60 83 99 119 104 105 140 157 171 169 153 137
360 115 38 31 44 65 73 57 64 79 78 64 102 91 92 103 95 93 80 72 77 108 153 111 70 86 163 241 136 143 161 160 150 148 162 151 145 128 114 52 84 111 135 152 155 163 158 159 152
21 28 42 58 50 63 64 51 78 73 70 78 74 77 99 108 100 97 97 84 105 110 108 166 83 79 122 214 192 197 165 164 167 142 171 178 173 235 257 78 120 139 148 151 151 160 167 179 158
48 31 44 38 45 68 71 65 85 56 53 88 94 99 109 112 107 93 100 94 92 77 64 81 250 184 53 182 170 182 212 205 188 194 187 202 177 171 170 127 144 145 149 153 147 150 159 162 204
45 44 59 55 72 78 65 97 60 57 69 87 96 102 108 115 114 103 99 63 43 17 38 59 102 96 340 7 211 243 221 220 207 180 197 196 190 179 194 201 166 183 145 115 165 166 218 235 210
47 85 70 62 76 80 99 92 85 73 85 93 97 101 97 110 113 89 71 51 49 36 18 42 53 72 81 224 256 168 206 196 165 205 186 198 195 199 189 208 200 214 232 164 203 221 218 186 189
137 91 73 76 67 80 90 83 111 88 92 97 101 106 120 132 135 87 91 90 70 47 22 31 51 69 80 200 251 238 356 236 238 227 223 206 212 211 235 208 193 200 230 202 260 238 226 179 242
109 69 100 77 80 83 143 93 97 98 97 101 106 113 122 126 140 127 117 92 94 46 26 27 18 44 62 357 197 232 3 220 237 11 141 171 189 234 228 219 175 119 274 286 279 258 256 244 223
91 346 244 47 78 75 167 56 97 103 109 103 111 115 119 119 133 151 122 98 19 19 316 330 347 27 48 25 19 252 47 27 275 70 53 16 348 299 286 222 130 329 24 337 288 261 348 69 214
115 94 75 68 77 75 108 328 85 106 119 113 113 113 119 119 123 135 140 125 95 47 38 305 285 293 346 355 320 325 347 310 327 318 36 9 22 24 270 9 24 22 43 15 303 344 329 256 289
173 28 53 22 33 68 104 139 105 103 127 125 124 120 122 114 125 135 137 142 122 71 16 327 298 318 286 339 317 277 48 44 109 212 341 342 315 308 30 1 347 54 13 274 294 1 174 96 266
156 78 35 21 44 77 80 87 53 96 115 133 130 126 128 130 128 122 142 136 141 129 88 307 289 294 294 345 350 307 120 104 15 309 314 323 63 32 35 250 6 116 35 307 285 281 47 231 266
148 338 341 23 67 238 292 261 49 76 95 131 139 134 131 130 127 137 135 136 137 138 137 334 293 344 292 296 299 260 249 95 163 49 136 115 172 195 210 232 273 311 272 338 8 52 297 309 289
233 337 7 297 270 314 264 336 202 60 67 102 122 131 133 134 136 131 142 136 130 128 134 89 311 360 263 226 271 292 235 255 44 37 69 138 299 277 297 287 328 310 274 347 343 340 342 312 298
19 217 331 267 266 83 142 78 338 64 51 70 106 117 120 129 126 135 138 143 138 135 129 112 56 91 266 241 263 326 213 284 315 322 316 322 342 339 335 341 333 337 331 332 344 350 360 5 340
242 311 282 242 239 225 287 264 84 95 21 32 82 99 102 111 124 124 139 135 141 117 124 120 119 124 87 268 238 318 200 310 336 341 356 343 1 346 340 342 336 330 338 340 337 346 348 349 349
240 225 225 215 299 275 131 324 346 81 14 21 56 81 94 111 116 117 118 121 120 109 108 114 129 131 127 89 314 239 309 344 335 349 355 359 8 6 357 353 351 348 336 334 326 329 336 335 341
160 204 233 250 21 188 321 253 346 15 8 356 41 74 91 104 115 113 112 118 115 110 109 113 120 124 123 125 145 118 80 15 357 356 353 348 358 9 11 13 16 22 20 345 314 321 339 7 12
202 240 239 254 283 33 30 28 11 260 19 21 24 50 77 95 103 116 122 121 123 114 111 106 105 115 118 107 106 47 21 352 332 336 6 357 3 357 9 12 1 63 185 170 192 230 254 291 216
204 210 235 249 267 290 8 39 6 354 3 21 37 52 71 81 84 102 120 127 126 130 121 117 118 124 129 118 87 63 88 139 30 10 13 10 7 17 15 9 2 355 308 247 233 320 308 310 262
217 237 217 124 176 302 336 324 345 342 14 20 27 59 73 80 86 99 118 124 129 128 120 117 123 127 136 122 107 74 34 10 21 15 354 357 2 357 360 360 2 0 351 335 309 298 329 324 319
159 190 204 238 258 316 308 354 15 17 3 29 21 51 77 85 87 85 109 116 125 127 122 120 121 118 119 115 89 49 51 46 34 23 21 21 17 15 11 6 1 356 351 346 341 333 330 325 322
273 24 172 190 175 174 291 344 332 343 329 344 6 35 65 73 88 97 113 118 121 127 126 126 124 117 114 76 79 68 57 42 32 29 27 26 23 21 14 8 5 2 356 347 338 335 334 337 335